Wind_Speed
39 40 40 39 38 37 34 33 32 31 29 28 28 28 29 29 29 28 28 29 30 31 31 32 32 33 34 36 38 40 41 41 41 42 42 44 44 45 46 47 49 51 53
41 41 40 38 38 37 36 34 33 32 30 29 28 29 29 30 29 29 30 31 31 32 33 33 34 35 37 39 40 42 42 43 43 43 43 44 45 47 48 51 53 55 57
44 42 40 38 38 38 37 35 34 33 31 29 28 29 30 30 30 31 31 32 33 34 35 36 37 38 40 41 42 43 45 46 46 46 47 47 47 47 48 52 56 58 60
47 44 41 38 37 38 37 36 35 34 32 30 29 29 30 30 31 32 33 34 35 36 37 38 39 41 42 43 44 45 47 47 48 49 50 52 54 54 53 54 57 59 61
48 45 42 38 38 38 38 37 35 34 32 30 29 29 30 30 31 32 34 35 36 38 39 40 41 43 44 45 46 47 48 49 50 51 53 55 58 60 61 60 60 61 62
48 46 43 40 39 38 38 37 35 34 32 30 29 29 29 30 32 33 35 36 38 39 40 42 43 44 45 46 48 49 50 51 53 55 57 59 61 63 65 65 65 65 64
49 47 44 41 39 38 37 37 35 34 32 31 30 29 29 30 32 34 35 37 38 39 41 42 44 45 46 47 49 50 52 53 56 58 61 63 65 67 69 69 69 68 68
48 47 44 41 39 38 38 37 35 34 32 31 30 30 30 31 33 34 36 37 38 40 41 43 44 46 47 49 50 52 54 56 59 61 63 66 68 70 71 72 73 73 72
47 45 44 42 40 39 38 37 35 34 32 31 30 30 30 32 33 34 35 37 39 40 42 44 46 47 49 50 52 54 56 59 61 64 66 68 70 71 72 75 77 80 80
45 43 42 42 40 39 39 37 35 34 33 31 30 30 31 32 33 34 36 38 39 41 43 45 47 49 51 53 54 56 59 61 64 66 68 70 71 72 75 78 81 86 90
41 40 41 41 40 39 38 37 35 33 32 31 31 31 31 32 33 34 36 38 40 42 44 47 49 51 53 55 57 59 61 64 67 69 70 71 72 75 78 82 87 92 98
39 38 39 39 39 38 37 35 33 33 32 31 31 31 31 32 33 34 36 39 41 43 46 48 50 52 54 56 59 61 64 66 68 69 70 72 75 78 83 88 93 99 105
37 38 38 38 38 37 35 33 32 32 31 31 30 30 31 32 33 35 38 40 42 45 47 49 51 53 56 58 61 63 66 68 69 70 72 75 79 83 88 94 99 105 109
36 36 36 35 34 34 33 32 31 31 30 29 29 30 30 32 34 37 39 42 44 46 48 51 53 55 58 61 63 66 68 69 70 72 76 79 84 89 95 100 105 108 109
33 33 32 31 31 31 30 29 28 28 28 28 28 29 31 33 35 38 41 43 45 47 50 52 55 57 60 63 66 67 68 69 72 75 80 84 90 96 101 105 107 106 101
30 29 28 28 28 28 27 26 26 26 26 27 28 29 32 34 37 39 41 44 46 49 51 54 57 60 63 65 66 67 69 71 75 79 84 90 95 100 104 105 102 95 87
26 25 25 26 26 25 25 24 24 24 25 26 28 31 33 36 38 40 42 45 48 51 53 56 59 62 64 65 66 68 71 75 79 84 90 95 100 103 103 98 89 79 70
24 24 24 23 23 22 22 22 22 23 25 27 30 32 34 36 38 41 44 46 49 52 55 58 61 62 64 65 67 70 74 79 84 90 95 99 101 100 96 86 75 64 56
21 21 20 20 19 19 20 21 22 24 27 29 30 32 35 37 40 42 45 48 51 54 57 59 61 62 63 66 69 73 78 83 88 94 98 100 98 93 84 73 61 51 45
17 17 17 17 18 19 20 21 23 25 27 29 31 33 36 38 41 43 46 50 53 55 58 59 60 62 65 68 73 78 82 88 92 96 98 96 89 79 69 59 49 41 37
15 16 17 18 18 19 20 22 23 25 27 30 32 34 37 39 42 45 48 51 54 56 57 58 61 64 68 72 78 83 88 92 95 95 92 85 75 66 57 48 40 36 33
15 15 17 18 18 19 20 22 24 26 28 30 33 35 38 41 44 47 50 52 54 55 56 59 62 67 72 77 82 87 92 95 94 90 82 72 63 54 46 39 34 32 30
14 15 16 17 18 19 20 22 24 26 29 31 34 37 40 43 45 48 50 52 53 55 57 61 65 70 75 81 86 90 93 93 88 79 69 60 51 43 37 33 31 29 28
14 15 15 16 17 19 21 23 25 27 30 33 36 38 41 44 47 48 50 52 54 56 60 64 68 73 79 84 88 91 90 85 77 66 57 48 41 36 32 30 29 29 28
13 14 14 16 18 19 22 24 27 30 32 35 37 40 43 45 47 48 50 52 55 59 64 68 73 78 83 88 91 90 84 75 65 54 45 38 33 30 30 30 29 29 29
12 13 15 17 19 21 24 26 29 31 34 36 39 41 43 45 47 48 51 55 59 63 68 73 78 83 88 90 89 82 72 62 53 44 37 31 28 27 27 27 29 30 30
Wind_Direction
242 243 245 245 244 245 247 247 246 246 247 248 250 249 249 251 253 256 260 264 269 274 279 284 287 288 290 292 294 296 297 296 295 295 295 294 294 293 293 293 292 292 292
242 243 244 243 241 242 244 246 246 245 245 247 249 250 251 252 254 256 260 265 271 276 281 285 287 289 292 294 295 296 297 297 296 295 293 293 293 294 294 294 294 294 294
241 242 242 242 240 240 242 245 245 244 244 245 248 250 251 252 254 258 262 267 272 277 282 286 288 290 293 294 296 297 297 297 297 296 295 293 292 290 291 293 294 295 295
240 240 240 240 239 239 241 244 245 245 244 244 246 248 250 252 256 260 264 269 274 279 283 286 289 292 294 295 296 297 298 298 298 297 297 297 296 295 293 293 293 294 294
239 238 238 237 237 238 239 242 244 245 245 245 246 249 251 254 258 262 266 271 276 280 283 287 290 293 294 296 297 298 299 298 298 298 298 298 298 298 297 296 295 295 295
237 236 234 233 235 236 238 241 243 244 245 245 247 250 253 256 260 264 268 273 277 280 284 288 292 294 296 297 299 299 299 299 299 299 298 298 298 298 298 298 297 296 295
234 233 232 231 232 234 236 239 242 242 244 245 248 252 256 260 263 267 270 274 278 282 287 290 293 295 297 298 299 299 299 299 299 299 299 299 300 300 300 299 298 297 297
231 230 228 226 227 230 233 236 239 240 242 245 249 254 258 262 266 269 273 277 281 285 289 292 294 297 298 299 299 299 299 299 299 300 300 301 302 302 301 301 300 298 297
227 225 223 221 222 226 230 233 236 239 242 246 251 255 260 264 268 271 276 280 284 287 291 294 296 297 298 298 299 299 299 300 300 301 302 303 303 303 303 302 302 302 301
220 219 218 218 219 223 227 232 235 239 243 248 253 257 262 266 270 274 278 282 286 290 293 295 296 297 298 298 299 299 300 301 302 303 304 304 304 304 304 304 304 305 304
212 211 212 215 218 222 226 231 235 239 244 249 254 259 264 269 273 277 281 285 289 292 294 295 296 297 298 299 300 301 302 303 304 305 305 305 305 305 306 306 306 306 306
203 203 207 212 217 222 226 230 234 239 244 249 255 261 266 271 275 280 284 288 290 292 294 295 297 298 299 300 302 303 304 305 305 305 305 306 306 307 307 308 308 308 308
196 199 205 210 215 221 225 228 232 238 244 250 257 262 267 273 278 282 286 289 291 293 294 296 297 299 301 303 304 305 305 306 306 306 307 308 308 309 309 309 309 309 309
191 197 203 209 214 218 222 225 231 238 245 252 258 264 270 275 280 284 287 290 292 293 295 297 299 301 303 304 305 306 306 307 308 308 309 310 310 311 311 311 311 311 311
189 195 200 205 211 215 220 225 232 239 246 253 261 267 273 278 282 285 288 291 293 295 297 300 302 304 305 306 306 307 308 308 309 310 311 311 312 312 313 313 313 313 312
186 191 196 202 208 213 218 224 232 240 249 257 265 271 277 281 284 287 290 293 295 298 300 302 304 305 306 307 307 308 309 310 311 312 312 313 313 314 314 314 314 314 313
183 188 194 200 206 212 219 227 236 246 256 264 270 276 280 283 287 290 293 295 298 301 303 304 305 306 307 308 309 310 311 312 312 313 314 314 315 315 315 315 315 314 313
185 191 196 202 209 217 226 236 247 256 264 270 275 279 283 287 290 293 295 298 301 303 304 305 306 307 308 309 310 311 312 313 314 315 315 316 316 316 316 315 315 315 314
185 193 201 209 218 228 238 248 257 264 269 274 278 283 286 290 292 295 298 301 303 304 305 306 307 308 310 311 312 313 314 314 315 316 317 317 317 317 316 316 317 316 316
193 203 213 223 233 242 250 257 263 268 273 278 282 286 290 293 296 298 301 302 304 305 306 308 309 310 311 312 313 314 315 316 317 318 318 318 317 317 317 318 318 318 318
210 220 229 237 244 251 256 262 268 273 278 283 287 290 293 296 298 300 302 304 305 307 308 309 310 311 313 314 315 316 317 318 319 319 318 318 317 317 317 318 319 319 319
226 233 240 246 252 257 263 269 274 280 284 287 291 294 296 298 300 302 304 305 307 308 309 310 312 313 314 316 317 318 319 319 319 319 319 318 317 317 318 318 320 320 320
236 241 247 254 260 265 271 276 281 285 289 292 295 297 299 301 302 304 306 307 309 310 310 311 313 314 316 317 318 319 319 320 320 319 319 318 319 319 319 320 321 321 321
241 248 254 261 267 273 278 283 287 290 293 296 298 299 301 303 305 307 308 309 310 311 312 313 314 316 317 318 319 320 320 320 320 320 319 320 321 321 322 323 324 324 325
250 256 264 270 277 282 285 289 292 295 297 299 300 302 304 306 307 309 310 310 311 312 314 315 316 317 319 320 320 321 321 321 321 321 322 322 323 324 324 325 326 327 327
259 266 274 280 284 287 290 293 296 298 300 301 303 305 306 308 309 310 311 313 314 315 316 318 319 320 321 321 322 322 322 322 323 324 324 325 326 326 326 327 327 327 326
Height
5729 5732 5735 5739 5743 5746 5748 5750 5752 5754 5755 5757 5758 5759 5760 5761 5762 5764 5764 5765 5764 5764 5763 5761 5760 5758 5756 5754 5751 5748 5745 5742 5739 5736 5732 5728 5724 5720 5716 5712 5708 5704 5700
5720 5723 5727 5730 5735 5738 5740 5743 5745 5747 5749 5751 5752 5753 5754 5755 5756 5757 5758 5758 5758 5757 5755 5754 5752 5750 5748 5745 5742 5739 5735 5732 5729 5726 5723 5719 5716 5710 5705 5700 5696 5691 5686
5711 5714 5718 5722 5726 5730 5733 5735 5738 5740 5742 5744 5745 5747 5748 5749 5750 5751 5751 5751 5750 5749 5748 5746 5744 5742 5739 5736 5733 5729 5725 5721 5717 5714 5710 5707 5704 5702 5699 5691 5684 5678 5673
5700 5705 5710 5714 5718 5722 5725 5728 5731 5733 5735 5737 5739 5740 5741 5742 5743 5744 5744 5743 5743 5741 5740 5738 5736 5733 5730 5726 5723 5719 5715 5710 5706 5701 5696 5692 5687 5684 5684 5682 5674 5667 5660
5690 5696 5701 5706 5710 5714 5717 5721 5724 5726 5728 5730 5732 5733 5734 5735 5736 5737 5736 5736 5735 5734 5732 5729 5727 5724 5720 5716 5712 5707 5703 5698 5693 5688 5683 5678 5672 5666 5662 5662 5659 5653 5645
5680 5686 5692 5697 5702 5706 5710 5713 5717 5719 5721 5723 5725 5726 5727 5728 5729 5729 5729 5728 5727 5725 5723 5720 5717 5714 5710 5705 5700 5695 5691 5686 5680 5675 5669 5664 5658 5652 5646 5642 5639 5634 5629
5668 5675 5682 5689 5694 5699 5703 5706 5709 5712 5714 5716 5718 5719 5720 5721 5721 5721 5721 5720 5719 5716 5714 5711 5707 5703 5699 5694 5689 5684 5679 5673 5667 5661 5655 5648 5641 5634 5627 5621 5617 5614 5609
5657 5665 5673 5680 5686 5691 5695 5698 5702 5705 5707 5709 5711 5712 5713 5714 5714 5713 5713 5712 5710 5708 5705 5701 5697 5693 5688 5683 5678 5672 5666 5660 5654 5647 5640 5633 5625 5617 5608 5601 5594 5591 5589
5646 5655 5663 5671 5677 5682 5687 5691 5695 5698 5700 5702 5704 5705 5706 5706 5706 5705 5704 5703 5701 5698 5695 5691 5687 5682 5677 5672 5666 5660 5654 5647 5640 5633 5625 5617 5608 5599 5590 5581 5571 5564 5560
5635 5645 5654 5662 5669 5674 5679 5684 5687 5691 5694 5696 5697 5698 5698 5698 5698 5697 5696 5694 5692 5689 5685 5681 5676 5671 5666 5660 5654 5648 5641 5634 5626 5618 5610 5600 5592 5582 5572 5562 5552 5539 5530
5628 5638 5647 5655 5662 5668 5673 5677 5681 5685 5687 5689 5690 5691 5691 5691 5690 5689 5688 5686 5683 5680 5676 5671 5666 5660 5654 5648 5642 5635 5627 5620 5611 5602 5594 5584 5575 5565 5554 5543 5531 5518 5503
5622 5632 5641 5649 5656 5662 5667 5671 5675 5678 5681 5682 5683 5684 5684 5683 5682 5681 5679 5677 5674 5670 5665 5660 5655 5649 5642 5636 5629 5622 5614 5605 5597 5587 5578 5568 5558 5548 5536 5523 5509 5494 5476
5617 5627 5635 5643 5650 5656 5661 5665 5669 5672 5674 5676 5676 5677 5676 5676 5675 5673 5671 5668 5664 5660 5655 5650 5644 5637 5630 5623 5616 5608 5599 5590 5581 5571 5562 5551 5540 5529 5516 5502 5486 5469 5450
5614 5623 5631 5639 5645 5651 5656 5659 5663 5666 5668 5669 5670 5670 5669 5668 5667 5665 5662 5659 5654 5650 5644 5638 5632 5625 5618 5610 5603 5594 5585 5575 5565 5555 5544 5533 5521 5507 5493 5478 5460 5441 5423
5613 5621 5629 5635 5641 5646 5651 5654 5658 5660 5662 5663 5663 5663 5662 5661 5659 5656 5653 5649 5644 5639 5633 5627 5620 5613 5605 5597 5588 5580 5570 5560 5550 5539 5527 5514 5500 5484 5468 5450 5433 5413 5395
5612 5619 5626 5632 5637 5642 5646 5649 5652 5654 5655 5656 5656 5656 5655 5653 5650 5647 5643 5638 5633 5627 5621 5615 5608 5600 5592 5583 5574 5565 5555 5545 5534 5522 5509 5495 5479 5462 5445 5425 5406 5387 5369
5611 5618 5624 5629 5634 5638 5641 5644 5646 5648 5650 5650 5650 5648 5646 5644 5641 5637 5633 5628 5622 5616 5609 5602 5595 5587 5578 5569 5559 5550 5540 5529 5516 5503 5489 5474 5457 5438 5421 5405 5388 5371 5354
5611 5617 5622 5627 5631 5634 5637 5640 5642 5643 5643 5643 5642 5640 5638 5635 5632 5627 5622 5617 5611 5604 5597 5590 5582 5574 5565 5555 5546 5536 5525 5512 5498 5483 5467 5451 5435 5416 5399 5385 5371 5357 5344
5611 5616 5620 5624 5628 5631 5633 5635 5636 5637 5636 5635 5634 5632 5629 5626 5622 5617 5612 5606 5600 5593 5585 5577 5569 5561 5552 5542 5532 5521 5509 5496 5480 5463 5445 5427 5412 5396 5379 5366 5356 5345 5335
5611 5615 5619 5622 5625 5627 5629 5630 5630 5630 5629 5628 5626 5623 5620 5616 5612 5607 5601 5595 5589 5581 5573 5565 5556 5548 5538 5528 5517 5504 5492 5479 5463 5444 5424 5405 5389 5374 5361 5352 5343 5336 5328
5610 5613 5616 5619 5621 5622 5623 5623 5623 5623 5622 5620 5617 5614 5611 5607 5602 5597 5591 5584 5577 5570 5562 5554 5544 5534 5523 5512 5499 5485 5470 5455 5440 5423 5406 5388 5372 5360 5349 5341 5334 5327 5321
5608 5610 5613 5614 5616 5617 5617 5617 5617 5616 5614 5612 5609 5606 5602 5597 5592 5586 5580 5573 5566 5558 5550 5541 5531 5519 5507 5495 5482 5467 5450 5434 5419 5403 5387 5372 5360 5349 5340 5333 5327 5321 5315
5605 5607 5609 5610 5611 5611 5611 5611 5610 5608 5606 5604 5600 5596 5592 5587 5581 5575 5569 5561 5554 5546 5538 5528 5518 5507 5493 5479 5465 5450 5433 5415 5400 5385 5370 5358 5348 5340 5332 5326 5321 5315 5310
5602 5603 5605 5605 5606 5606 5606 5605 5603 5601 5598 5595 5591 5587 5583 5577 5571 5564 5557 5550 5542 5534 5524 5515 5504 5492 5478 5463 5449 5433 5416 5400 5385 5371 5358 5348 5339 5332 5326 5320 5315 5309 5304
5599 5600 5601 5601 5601 5600 5599 5598 5596 5593 5590 5587 5582 5578 5572 5567 5560 5553 5546 5538 5529 5520 5510 5500 5488 5475 5462 5445 5429 5412 5397 5382 5369 5358 5349 5340 5333 5327 5321 5315 5309 5304 5299
5596 5596 5597 5596 5596 5594 5593 5591 5588 5585 5582 5577 5573 5568 5562 5556 5550 5542 5534 5525 5516 5506 5494 5482 5470 5455 5440 5425 5409 5394 5378 5366 5356 5347 5340 5334 5328 5323 5317 5312 5306 5299 5294